Francistown, Botswana

12:22 AM CAT on March 26, 2017 (GMT +0200)
Francistown

Weather History for FBFT - January, 2012

Change the Weather History Date:

Friday, January 6, 2012

  Actual Average Record
Temperature  
Mean Temperature 80 °F -  
Max Temperature 91 °F 85 °F 98 °F (2016)
Min Temperature 68 °F 66 °F 55 °F (2001)
Cooling Degree Days 14    
Growing Degree Days 30 (Base 50)    
Moisture  
Dew Point 59 °F    
Average Humidity 50    
Maximum Humidity 65    
Minimum Humidity 31    
Precipitation  
Precipitation 0.00 in - - ()
Sea Level Pressure  
Sea Level Pressure 30.02 in    
Wind  
Wind Speed 8 mph ()    
Max Wind Speed 16 mph    
Max Gust Speed -    
Visibility 6.2 miles    
Events      
Averages and records for this station are not official NWS values.
T = Trace of Precipitation, MM = Missing Value Source: Averaged Metar Reports

Daily Weather History Graph

Daily Weather History Graph

Search for Another Location

Airport or City:

Trip Planner

Search our weather history database for the weather conditions in past years. The results will help you decide how hot, cold, wet, or windy it might be!

Date:

Astronomy

Jan. 06, 2012 Rise Set
Actual Time 5:34 AM CAT 6:56 PM CAT
Civil Twilight 5:09 AM CAT 7:21 PM CAT
Nautical Twilight 4:40 AM CAT 7:50 PM CAT
Astronomical Twilight 4:09 AM CAT 8:20 PM CAT
Moon 4:36 PM CAT (1/6) 2:54 AM CAT (1/6)
Length of Visible Light 14h 11m
Length of Day
13h 22m
Waxing Gibbous, 92% of the Moon is Illuminated
Jan 6
Waxing Gibbous
Jan 9
Full
Jan 16
Last Quarter
Jan 23
New
Jan 31
First Quarter

Hourly Weather History & Observations

Time (CAT) Temp. Heat Index Dew Point Humidity Pressure Visibility Wind Dir Wind Speed Gust Speed Precip Events Conditions
12:00 AM 71.6 °F - 55.4 °F 57% 30.04 in - Variable 2.3 mph - N/A   Clear
1:00 AM 68.0 °F - 53.6 °F 60% 30.04 in - North 3.5 mph - N/A   Clear
3:00 AM 69.8 °F - 55.4 °F 60% 30.04 in - East 6.9 mph - N/A   Clear
4:00 AM 71.6 °F - 55.4 °F 57% 30.04 in - ESE 9.2 mph - N/A   Clear
6:00 AM 71.6 °F - 59.0 °F 64% 30.09 in - ESE 5.8 mph - N/A   Clear
7:00 AM 73.4 °F - 60.8 °F 65% 30.12 in - East 10.4 mph - N/A   Clear
8:00 AM 75 °F - 62 °F 55%  in 6 mi East 16.1 mph - -   Partly Cloudy
8:00 AM 75.2 °F - 62.6 °F 65% 30.09 in - East 16.1 mph - N/A   Clear
10:00 AM 80.6 °F 82.3 °F 64.4 °F 58% 30.09 in - East 13.8 mph - N/A   Clear
11:00 AM 80.6 °F 81.8 °F 62.6 °F 54% 30.06 in - East 10.4 mph - N/A   Clear
12:00 PM 86.0 °F 86.1 °F 60.8 °F 43% 30.04 in - East 15.0 mph - N/A   Clear
1:00 PM 87.8 °F 87.6 °F 60.8 °F 40% 30.04 in - East 13.8 mph - N/A   Clear
2:00 PM 86.0 °F 85.4 °F 59.0 °F 40% 30.01 in - East 12.7 mph - N/A   Clear
3:00 PM 91.4 °F 90.7 °F 59.0 °F 34% 29.98 in - East 6.9 mph - N/A   Clear
4:00 PM 91.4 °F 91.4 °F 60.8 °F 36% 29.95 in - ESE 15.0 mph - N/A   Clear
5:00 PM 91.4 °F 89.9 °F 57.2 °F 31% 29.92 in 6.2 mi East 10.4 mph - N/A   Partly Cloudy
6:00 PM 89.6 °F 88.1 °F 57.2 °F 33% 29.95 in 6.2 mi East 5.8 mph - N/A   Partly Cloudy
7:00 PM 86.0 °F 84.9 °F 57.2 °F 37% 29.95 in 6.2 mi East 6.9 mph - N/A   Partly Cloudy
8:00 PM 82 °F - 68 °F 54%  in 6 mi East 6.9 mph - -   Scattered Clouds
8:00 PM 82.4 °F 82.5 °F 59.0 °F 45% 29.98 in 6.2 mi East 6.9 mph - N/A   Partly Cloudy
9:00 PM 80.6 °F 81.1 °F 59.0 °F 48% 30.01 in 6.2 mi East 9.2 mph - N/A   Partly Cloudy
10:00 PM 78.8 °F - 59.0 °F 51% 30.04 in 6.2 mi East 11.5 mph - N/A   Partly Cloudy
11:00 PM 77.0 °F - 59.0 °F 54% 30.04 in 6.2 mi East 8.1 mph - N/A   Partly Cloudy